{"data":{"norad_id":47780,"epoch":"2026-05-24T21:36:02.752704Z","epoch_age_seconds":86773,"freshness":"FRESH","line1":"1 47780U 21017BL  26144.90003186  .00000799  00000+0  37512-4 0  9997","line2":"2 47780  53.1591 209.3753 0001330  84.8720 275.2433 15.31703163289574","mean_motion":15.31703163,"eccentricity":0.000133,"inclination_deg":53.1591,"raan_deg":209.3753,"arg_perigee_deg":84.872,"mean_anomaly_deg":275.2433,"bstar":3.7512e-5,"rev_number":28957,"period_min":94.012993821832,"perigee_km":469.81966711712,"apogee_km":471.64146588981,"semimajor_km":6848.8675665035,"source":"CELESTRAK","updated_at":"2026-05-25T13:38:16.596629Z"}}